Location: Newark
(45.5167°N, 11.1667°E)
Time: 05:51:20
(UTC+00:00)

Explorer 7 - Pass Details

Date: 21 December 2019
Orbit: 485 x 679 km, 50.3° (Epoch: 21 January)

Event Time Altitude Azimuth Distance (km) Brightness Sun altitude
Rises 14:03:23 0° 281° (W) 2,952 10.9 11.0°
Reaches altitude 10° 14:05:46 10° 287° (WNW) 2,066 10.1 10.7°
Maximum altitude 14:10:24 47° 2° (N) 886 7.7 10.2°
Drops below altitude 10° 14:15:09 10° 77° (ENE) 2,117 9.4 9.6°
Sets 14:17:37 0° 83° (E) 3,033 10.1 9.3°
